[Iaude] MPEC K128: 2020 KD3 [a=1.35,e=0.32,i=3.8,H=26.6]

mpec at marsden.cfa.harvard.edu mpec at marsden.cfa.harvard.edu
Fri May 22 14:52:54 EDT 2020


M.P.E.C. 2020-K128                                 Issued 2020 May 22, 18:51 UT

     The Minor Planet Electronic Circulars contain information on unusual
         minor planets and routine data on comets.  They are published
    on behalf of Division F of the International Astronomical Union by the
          Minor Planet Center, Smithsonian Astrophysical Observatory,
                          Cambridge, MA 02138, U.S.A.

             Prepared using the Tamkin Foundation Computer Network

                              MPC at CFA.HARVARD.EDU
            URL https://www.minorplanetcenter.net/    ISSN 1523-6714

                                    2020 KD3                                    


Observations:
     K20K03D  C2020 05 16.38060613 34 39.454+05 27 08.35         21.4 GVEK128F52
     K20K03D  C2020 05 16.39186513 34 34.630+05 27 23.56         22.0 GVEK128F52
     K20K03D  C2020 05 16.40307613 34 29.823+05 27 38.53         22.1 GVEK128F52
     K20K03D* C2020 05 21.24918 12 50 40.51 +07 51 16.4          22.5 GVEK128G96
     K20K03D  C2020 05 21.25440 12 50 35.93 +07 51 28.4          21.8 GVEK128G96
     K20K03D  C2020 05 21.25962 12 50 31.41 +07 51 40.6          21.2 GVEK128G96
     K20K03D  C2020 05 21.26483 12 50 26.98 +07 51 52.8          21.3 GVEK128G96
     K20K03D  C2020 05 21.33605 12 49 26.01 +07 54 32.6          21.0 GVEK128G96
     K20K03D  C2020 05 21.33727 12 49 24.97 +07 54 35.5          20.3 GVEK128G96
     K20K03D  C2020 05 21.33848 12 49 23.90 +07 54 38.5          19.8 GVEK128G96
     K20K03D  C2020 05 21.33970 12 49 22.92 +07 54 40.4          21.3 GVEK128G96
     K20K03D  C2020 05 22.24833 12 36 11.30 +08 32 59.7          21.6 GVEK128G96
     K20K03D  C2020 05 22.24955 12 36 10.07 +08 33 02.6          21.4 GVEK128G96
     K20K03D  C2020 05 22.25077 12 36 08.81 +08 33 05.8          21.0 GVEK128G96

Observer details:
F52 Pan-STARRS 2, Haleakala.  Observers J. Bulger, K. Chambers, T. Dukes, T.
    Lowe, A. Schultz, M. Willman.  Measurers S. Chastel, M. Huber, Y.
    Ramanjooloo, R. Wainscoat, R. Weryk.  1.8-m Ritchey-Chretien + CCD.
G96 Mt. Lemmon Survey.  Observers H. Groeller, D. Rankin.  Measurers E. J.
    Christensen, G. A. Farneth, D. C. Fuls, A. R. Gibbs, A. D. Grauer, H.
    Groeller, R. A. Kowalski, S. M. Larson, G. J. Leonard, T. A. Pruyne, D.
    Rankin, R. L. Seaman, F. C. Shelly, K. W. Wierzchos.  1.5-m reflector +
    10K CCD.

Orbital elements:
2020 KD3                                                 Earth MOID = 0.0012 AU
Epoch 2020 May 31.0 TT = JDT 2459000.5                  Pike
M 335.66361              (2000.0)            P               Q
n   0.62507192     Peri.  230.59714     +0.44092581     +0.89550724
a   1.3547195      Node    65.66481     -0.80175333     +0.42323681
e   0.3213225      Incl.    3.80250     -0.40345512     +0.13761318
P   1.58           H   26.6           G   0.15           U   8
Residuals in seconds of arc
200516 F52  0.1+  0.0     200521 G96  0.6-  0.1+    200521 G96  0.3+  0.4-
200516 F52  0.0   0.0     200521 G96  0.3+  0.4+    200522 G96  0.3-  0.1+
200516 F52  0.1-  0.0     200521 G96  0.2+  0.1-    200522 G96  0.1+  0.1-
200521 G96  0.7+  0.4-    200521 G96  0.1+  0.1+    200522 G96  0.2+  0.0
200521 G96  0.4-  0.2-    200521 G96  0.5-  0.4+

Ephemeris:
2020 KD3                 a,e,i = 1.35, 0.32, 4                   q = 0.9194
Date    TT    R. A. (2000) Decl.     Delta      r    Elong.  Phase     V
2020 04 22    14 32 01.8 +00 02 35   0.1732  1.1737   165.4    12.5    23.9
...
2020 05 07    14 10 30.2 +02 51 08   0.09848 1.1005   157.3    20.7    22.8
...
2020 05 15    13 42 29.1 +04 58 15   0.06371 1.0636   144.8    33.3    22.1
...
2020 05 21    12 53 58.8 +07 43 13   0.03999 1.0373   128.1    50.1    21.6
2020 05 22    12 40 10.4 +08 23 47   0.03637 1.0331   124.0    54.4    21.5
2020 05 23    12 23 25.4 +09 09 50   0.03292 1.0290   119.1    59.3    21.4
...
2020 05 29    08 54 28.1 +13 28 44   0.02027 1.0050    64.5   114.5    22.6
...
2020 06 06    04 50 23.0 +05 56 17   0.03985 0.9767    16.8   162.5    31.5
...
2020 06 21    03 40 50.1 +03 04 55   0.1049  0.9373    39.1   136.8    28.0

M. P. C. Staff               (C) Copyright 2020 MPC           M.P.E.C. 2020-K128




More information about the Iaude mailing list